Tracking 35331 objects as of 16-Sep-2026
HD Live streaming from Space Station
objects crossing your sky now

SL-12 R/B(2)

Track SL-12 R/B(2) now!


NORAD ID: 26101
Int'l Code: 2000-013D
Launch date: March 12, 2000
Source: Commonwealth of Independent States (former USSR) (CIS)
Launch site: TYURATAM MISSILE AND SPACE COMPLEX (TTMTR)

Note: This is a ROCKET BODY
Your satellite tracking list
Your tracking list is empty




NASA's NSSDC Master Catalog

Two Line Element Set (TLE):
1 26101U 00013D   26258.50580336  .00000096  00000-0  00000-0 0  9992
2 26101  14.3500   0.0971 0005859  79.9610 291.2413  1.00755069 97552
Source of the keplerian elements: AFSPC